period_start,C,m1,H,J0,J1,J2,J3,J4,J5,JA,JB,JC,JD,JJ,JK,JN,#
2017-11-03 00:03:15,0.04,2.70,0.00,17.36,20.61,23.64,14.38,47.09,1027.20,2054.07,2529.62,2474.06,2804.45,599.89,613.82,38.43,0000 0000 0000 0000 000000
2017-11-03 00:08:17,0.02,2.70,0.00,17.38,20.62,23.73,14.32,47.20,1027.11,2054.11,2529.02,2473.99,2804.02,599.87,613.75,38.48,0000 0000 0000 0000 000000
2017-11-03 00:13:18,0.03,2.70,0.00,17.39,20.62,23.66,14.27,47.10,1027.20,2054.05,2528.67,2473.72,2803.82,599.79,613.77,38.53,0000 0000 0000 0000 000000
2017-11-03 00:18:19,0.03,2.70,0.00,17.41,20.63,23.74,14.34,46.95,1027.07,2054.02,2528.02,2473.05,2803.11,599.95,613.70,38.59,0000 0000 0000 0000 000000
2017-11-03 00:23:21,0.01,2.70,0.00,17.42,20.64,23.70,14.33,47.05,1027.05,2054.03,2527.78,2473.00,2802.99,599.93,613.68,38.64,0000 0000 0000 0000 000000
2017-11-03 00:28:22,0.04,2.70,0.00,17.44,20.64,23.72,14.31,47.11,1027.08,2054.02,2527.04,2472.81,2802.47,599.92,613.62,38.69,0000 0000 0000 0000 000000
2017-11-03 00:33:24,0.04,2.71,0.00,17.44,20.66,23.73,14.33,47.15,1027.02,2054.01,2526.59,2472.13,2802.02,599.83,613.60,38.74,0000 0000 0000 0000 000000
2017-11-03 00:38:25,0.01,2.71,0.00,17.44,20.67,23.73,14.24,47.01,1027.10,2054.01,2526.01,2472.00,2801.87,599.36,613.04,38.79,0000 0000 0000 0000 000000
2017-11-03 00:43:26,0.04,2.71,0.00,17.45,20.67,23.76,14.29,47.11,1027.23,2054.00,2525.60,2471.85,2801.14,599.70,613.45,38.84,0000 0000 0000 0000 000000
2017-11-03 00:48:28,0.03,2.71,0.00,17.48,20.69,23.78,14.36,47.10,1027.32,2054.00,2525.01,2471.15,2800.96,599.79,613.46,38.89,0000 0000 0000 0000 000000
2017-11-03 00:53:29,0.03,2.71,0.00,17.51,20.69,23.79,14.31,47.02,1027.34,2054.00,2524.50,2470.99,2800.28,599.87,613.47,38.94,0000 0000 0000 0000 000000
2017-11-03 00:58:30,0.01,2.71,0.00,17.50,20.70,23.80,14.40,47.06,1027.34,2054.00,2524.01,2470.79,2800.00,600.08,613.76,38.99,0000 0000 0000 0000 000000
2017-11-03 01:03:32,0.04,2.72,0.00,17.50,20.72,23.79,14.34,47.09,1027.34,2054.00,2523.65,2470.12,2799.81,600.16,613.82,39.04,0000 0000 0000 0000 000000
2017-11-03 01:08:33,0.02,2.72,0.00,17.52,20.72,23.80,14.24,47.02,1027.33,2054.00,2523.03,2470.00,2799.11,599.57,613.28,39.09,0000 0000 0000 0000 000000
2017-11-03 01:13:34,0.01,2.72,0.00,17.53,20.74,23.79,14.28,47.08,1027.28,2053.99,2522.81,2469.95,2798.99,599.68,613.25,39.14,0000 0000 0000 0000 000000
2017-11-03 01:18:36,0.06,2.72,0.00,17.54,20.74,23.84,14.39,47.18,1027.28,2053.98,2522.05,2469.28,2798.52,600.26,613.95,39.19,0000 0000 0000 0000 000000
2017-11-03 01:23:37,0.01,2.72,0.00,17.54,20.76,23.83,14.31,47.08,1027.32,2053.99,2521.94,2469.01,2798.01,599.68,613.25,39.24,0000 0000 0000 0000 000000
2017-11-03 01:28:38,0.03,2.72,0.00,17.55,20.77,23.83,14.30,46.98,1027.36,2053.97,2521.12,2468.90,2797.79,599.94,613.62,39.29,0000 0000 0000 0000 000000
2017-11-03 01:33:39,0.04,2.73,0.00,17.56,20.77,23.85,14.34,47.11,1027.35,2053.95,2520.92,2468.18,2797.07,599.92,613.62,39.34,0000 0000 0000 0000 000000
2017-11-03 01:38:40,0.02,2.73,0.00,17.58,20.79,23.86,14.34,47.17,1027.34,2053.94,2520.21,2468.01,2797.00,600.04,613.57,39.39,0000 0000 0000 0000 000000
2017-11-03 01:43:42,0.01,2.73,0.00,17.57,20.79,23.90,14.33,47.16,1027.36,2053.85,2519.98,2467.97,2796.46,599.68,613.25,39.44,0000 0000 0000 0000 000000
2017-11-03 01:48:43,0.04,2.73,0.00,17.59,20.81,23.89,14.43,47.27,1027.33,2053.79,2519.32,2467.40,2796.02,600.16,613.73,39.49,0000 0000 0000 0000 000000
2017-11-03 01:53:44,-0.02,2.73,0.00,17.59,20.82,23.89,14.30,47.15,1027.34,2053.45,2518.99,2467.02,2795.94,599.90,613.35,39.54,0000 0000 0000 0000 000000
2017-11-03 01:58:46,0.02,2.73,0.00,17.59,20.82,23.93,14.36,47.20,1027.31,2053.22,2518.42,2466.98,2795.21,599.96,613.47,39.60,0000 0000 0000 0000 000000
2017-11-03 02:03:47,0.02,2.73,0.00,17.61,20.83,23.91,14.35,47.22,1027.26,2053.11,2518.02,2466.59,2794.99,600.00,613.41,39.65,0000 0000 0000 0000 000000
2017-11-03 02:08:49,0.01,2.73,0.00,17.60,20.84,23.93,14.26,47.13,1027.13,2053.06,2517.89,2466.05,2794.87,599.99,613.36,39.70,0000 0000 0000 0000 000000
2017-11-03 02:13:50,0.03,2.73,0.00,17.62,20.85,23.95,14.46,47.23,1027.17,2053.03,2517.12,2466.00,2794.09,600.40,613.78,39.75,0000 0000 0000 0000 000000
2017-11-03 02:18:52,-0.00,2.73,0.00,17.61,20.87,23.96,14.30,47.28,1027.15,2053.00,2516.98,2465.92,2794.00,599.70,613.05,39.80,0000 0000 0000 0000 000000
2017-11-03 02:23:53,0.05,2.73,0.00,17.62,20.87,23.92,14.35,47.20,1027.05,2053.01,2516.47,2465.30,2793.75,600.00,613.26,39.85,0000 0000 0000 0000 000000
2017-11-03 02:28:54,0.02,2.74,0.00,17.62,20.87,23.96,14.36,47.25,1026.92,2053.01,2516.02,2465.02,2793.11,599.85,613.16,39.90,0000 0000 0000 0000 000000
2017-11-03 02:33:56,0.00,2.74,0.00,17.63,20.89,23.96,14.31,47.22,1026.91,2053.01,2515.94,2464.99,2793.00,599.98,613.16,39.95,0000 0000 0000 0000 000000
2017-11-03 02:38:57,0.01,2.74,0.00,17.65,20.89,23.94,14.32,47.16,1026.89,2053.00,2515.34,2464.98,2792.95,599.80,612.96,40.00,0000 0000 0000 0000 000000
2017-11-03 02:43:58,0.05,2.74,0.00,17.66,20.90,23.96,14.29,47.32,1026.89,2053.00,2515.00,2464.30,2792.28,599.41,612.63,40.05,0000 0000 0000 0000 000000
2017-11-03 02:48:59,0.01,2.74,0.00,17.66,20.92,23.96,14.40,47.31,1026.88,2053.00,2514.76,2464.01,2792.00,600.11,613.16,40.10,0000 0000 0000 0000 000000
2017-11-03 02:54:00,0.01,2.74,0.00,17.67,20.92,23.98,14.34,47.27,1026.87,2053.00,2514.11,2463.98,2791.86,599.96,613.05,40.15,0000 0000 0000 0000 000000
2017-11-03 02:59:01,0.02,2.74,0.00,17.67,20.93,24.03,14.30,47.21,1026.87,2052.99,2513.99,2463.86,2791.12,599.91,613.03,40.20,0000 0000 0000 0000 000000
2017-11-03 03:04:02,0.04,2.75,0.00,17.66,20.94,24.00,14.36,47.20,1026.87,2052.99,2513.57,2463.24,2791.01,600.34,613.48,40.25,0000 0000 0000 0000 000000
2017-11-03 03:09:04,0.01,2.75,0.00,17.68,20.94,24.01,14.33,47.32,1026.87,2052.98,2513.02,2463.00,2790.77,600.34,613.54,40.30,0000 0000 0000 0000 000000
2017-11-03 03:14:05,0.01,2.75,0.00,17.69,20.95,24.04,14.40,47.24,1026.87,2052.96,2512.88,2462.93,2790.11,600.28,613.33,40.35,0000 0000 0000 0000 000000
2017-11-03 03:19:07,0.04,2.75,0.00,17.69,20.96,24.02,14.38,47.29,1026.86,2052.95,2512.33,2462.47,2789.99,600.35,613.41,40.40,0000 0000 0000 0000 000000
2017-11-03 03:24:08,0.01,2.75,0.00,17.72,20.97,24.03,14.34,47.23,1026.84,2052.97,2512.01,2462.05,2789.94,599.94,612.82,40.45,0000 0000 0000 0000 000000
2017-11-03 03:29:09,0.01,2.75,0.00,17.71,20.97,24.03,14.37,47.27,1026.85,2052.95,2511.99,2462.00,2789.40,599.93,612.97,40.51,0000 0000 0000 0000 000000
2017-11-03 03:34:10,0.02,2.75,0.00,17.72,20.97,24.06,14.35,47.35,1026.85,2052.94,2511.59,2461.98,2789.00,600.05,613.02,40.56,0000 0000 0000 0000 000000
2017-11-03 03:39:11,0.02,2.75,0.00,17.72,20.99,24.03,14.27,47.30,1026.86,2052.92,2511.00,2461.55,2788.97,599.58,612.54,40.61,0000 0000 0000 0000 000000
2017-11-03 03:44:13,0.02,2.76,0.00,17.74,20.99,24.05,14.30,47.23,1026.87,2052.80,2510.76,2461.07,2788.42,599.98,612.90,40.66,0000 0000 0000 0000 000000
2017-11-03 03:49:14,0.02,2.76,0.00,17.75,20.99,24.04,14.41,47.26,1026.86,2052.79,2510.08,2461.01,2788.03,600.41,613.24,40.71,0000 0000 0000 0000 000000
2017-11-03 03:54:15,-0.00,2.76,0.00,17.76,20.99,24.06,14.32,47.13,1026.87,2052.71,2509.91,2460.96,2787.98,600.48,613.37,40.76,0000 0000 0000 0000 000000
2017-11-03 03:59:17,0.06,2.76,0.00,17.76,21.00,24.09,14.39,47.34,1026.87,2052.82,2509.27,2460.60,2787.80,600.11,613.00,40.81,0000 0000 0000 0000 000000
2017-11-03 04:04:18,0.01,2.76,0.00,17.76,21.01,24.07,14.32,47.24,1026.87,2052.74,2508.99,2460.03,2787.10,599.63,612.70,40.86,0000 0000 0000 0000 000000
2017-11-03 04:09:19,-0.01,2.76,0.00,17.77,21.02,24.08,14.29,47.16,1026.87,2052.43,2508.54,2460.00,2787.00,599.75,612.62,40.91,0000 0000 0000 0000 000000
2017-11-03 04:14:20,-0.02,2.76,0.00,17.77,21.02,24.10,14.36,47.26,1026.87,2052.24,2508.02,2459.91,2786.81,600.12,613.02,40.96,0000 0000 0000 0000 000000
2017-11-03 04:19:22,0.04,2.76,0.00,17.76,21.03,24.12,14.36,47.25,1026.87,2052.16,2507.90,2459.26,2786.13,600.37,613.35,41.01,0000 0000 0000 0000 000000
2017-11-03 04:24:23,0.02,2.76,0.00,17.77,21.04,24.11,14.28,47.33,1026.87,2052.12,2507.10,2459.00,2786.00,599.59,612.40,41.06,0000 0000 0000 0000 000000
2017-11-03 04:29:24,0.00,2.76,0.00,17.78,21.04,24.14,14.33,47.26,1026.84,2052.09,2507.00,2459.00,2785.94,600.09,613.02,41.11,0000 0000 0000 0000 000000
2017-11-03 04:34:26,0.03,2.76,0.00,17.78,21.05,24.16,14.33,47.23,1026.77,2052.04,2506.70,2458.86,2785.32,600.01,612.79,41.16,0000 0000 0000 0000 000000
2017-11-03 04:39:27,0.03,2.77,0.00,17.79,21.07,24.15,14.37,47.22,1026.66,2052.02,2506.06,2458.22,2785.01,600.14,612.77,41.21,0000 0000 0000 0000 000000
2017-11-03 04:44:28,0.00,2.77,0.00,17.78,21.07,24.11,14.31,47.26,1026.64,2052.01,2505.98,2458.01,2784.98,600.03,612.83,41.26,0000 0000 0000 0000 000000
2017-11-03 04:49:29,0.03,2.77,0.00,17.78,21.08,24.13,14.29,47.16,1026.57,2052.01,2505.52,2457.99,2784.56,600.01,612.77,41.31,0000 0000 0000 0000 000000
2017-11-03 04:54:30,0.01,2.77,0.00,17.81,21.09,24.17,14.29,47.13,1026.64,2052.02,2505.01,2457.82,2784.04,599.55,612.20,41.36,0000 0000 0000 0000 000000
2017-11-03 04:59:31,0.03,2.77,0.00,17.82,21.09,24.17,14.32,47.27,1026.50,2052.00,2504.76,2457.11,2784.00,599.99,612.50,41.41,0000 0000 0000 0000 000000
2017-11-03 05:04:33,0.01,2.77,0.00,17.80,21.11,24.16,14.35,47.29,1026.46,2052.01,2504.12,2457.00,2783.94,599.79,612.51,41.47,0000 0000 0000 0000 000000
2017-11-03 05:09:34,0.01,2.77,0.00,17.80,21.12,24.16,14.33,47.29,1026.42,2052.01,2504.00,2457.00,2783.40,600.27,612.93,41.52,0000 0000 0000 0000 000000
2017-11-03 05:14:36,0.03,2.77,0.00,17.79,21.12,24.17,14.29,47.21,1026.43,2052.01,2503.60,2456.86,2783.02,599.55,612.14,41.57,0000 0000 0000 0000 000000
2017-11-03 05:19:37,0.03,2.78,0.00,17.80,21.12,24.17,14.30,47.31,1026.49,2052.00,2503.04,2456.18,2782.94,600.01,612.41,41.62,0000 0000 0000 0000 000000
2017-11-03 05:24:38,0.01,2.78,0.00,17.82,21.14,24.21,14.31,47.29,1026.44,2051.99,2502.98,2456.01,2782.25,600.09,612.60,41.67,0000 0000 0000 0000 000000
2017-11-03 05:29:40,0.02,2.78,0.00,17.82,21.14,24.18,14.33,47.35,1026.42,2051.99,2502.47,2455.98,2782.01,600.05,612.43,41.72,0000 0000 0000 0000 000000
2017-11-03 05:34:41,0.01,2.78,0.00,17.83,21.14,24.21,14.30,47.21,1026.40,2051.99,2502.02,2455.95,2781.99,599.74,612.25,41.77,0000 0000 0000 0000 000000
2017-11-03 05:39:42,0.05,2.78,0.00,17.84,21.14,24.19,14.31,47.22,1026.38,2051.99,2501.80,2455.35,2781.55,600.15,612.66,41.82,0000 0000 0000 0000 000000
2017-11-03 05:44:44,0.02,2.78,0.00,17.83,21.15,24.18,14.32,47.32,1026.38,2051.99,2501.07,2455.00,2781.02,600.06,612.49,41.87,0000 0000 0000 0000 000000
2017-11-03 05:49:45,0.00,2.78,0.00,17.84,21.17,24.23,14.28,47.29,1026.38,2051.99,2500.95,2454.98,2780.99,600.13,612.68,41.92,0000 0000 0000 0000 000000
2017-11-03 05:54:46,0.05,2.78,0.00,17.82,21.17,24.20,14.34,47.30,1026.38,2051.99,2500.54,2454.70,2780.53,599.98,612.38,41.97,0000 0000 0000 0000 000000
2017-11-03 05:59:48,0.02,2.79,0.00,17.84,21.17,24.24,14.32,47.24,1026.38,2051.98,2500.03,2454.08,2780.03,599.90,612.39,42.02,0000 0000 0000 0000 000000
2017-11-03 06:04:49,0.00,2.79,0.00,17.85,21.17,24.20,14.32,47.37,1026.39,2051.98,2499.98,2454.00,2779.99,599.78,612.34,42.07,0000 0000 0000 0000 000000
2017-11-03 06:09:50,0.02,2.79,0.00,17.86,21.18,24.26,14.33,47.42,1026.40,2051.99,2499.42,2453.99,2779.95,600.03,612.39,42.12,0000 0000 0000 0000 000000
2017-11-03 06:14:52,0.03,2.79,0.00,17.85,21.19,24.27,14.31,47.27,1026.40,2051.98,2499.01,2453.75,2779.25,599.97,612.48,42.17,0000 0000 0000 0000 000000
2017-11-03 06:19:53,0.03,2.79,0.00,17.87,21.19,24.23,14.30,47.26,1026.39,2051.98,2498.77,2453.10,2779.00,599.89,612.23,42.22,0000 0000 0000 0000 000000
2017-11-03 06:24:54,0.01,2.79,0.00,17.85,21.19,24.24,14.30,47.30,1026.40,2051.99,2498.04,2453.01,2778.96,599.81,612.40,42.27,0000 0000 0000 0000 000000
2017-11-03 06:29:56,0.02,2.79,0.00,17.83,21.19,24.26,14.30,47.27,1026.39,2051.97,2497.85,2452.99,2778.36,599.57,612.03,42.32,0000 0000 0000 0000 000000
2017-11-03 06:34:57,0.03,2.79,0.00,17.85,21.20,24.30,14.34,47.32,1026.40,2051.98,2497.19,2452.79,2778.02,599.91,612.45,42.37,0000 0000 0000 0000 000000
2017-11-03 06:39:58,0.02,2.80,0.00,17.87,21.21,24.27,14.32,47.27,1026.40,2051.98,2497.01,2452.11,2777.98,599.75,612.20,42.43,0000 0000 0000 0000 000000
2017-11-03 06:45:00,0.01,2.80,0.00,17.87,21.22,24.28,14.31,47.21,1026.45,2051.97,2496.91,2452.01,2777.64,599.87,612.19,42.48,0000 0000 0000 0000 000000
2017-11-03 06:50:01,0.03,2.80,0.00,17.89,21.22,24.29,14.31,47.31,1026.56,2051.96,2496.10,2451.98,2777.04,599.81,612.25,42.53,0000 0000 0000 0000 000000
2017-11-03 06:55:02,0.01,2.80,0.00,17.88,21.22,24.25,14.30,47.31,1026.49,2051.96,2495.99,2451.65,2776.99,600.16,612.56,42.58,0000 0000 0000 0000 000000
2017-11-03 07:00:03,0.04,2.80,0.00,17.90,21.22,24.25,14.35,47.27,1026.43,2051.94,2495.44,2451.06,2776.68,600.35,612.63,42.63,0000 0000 0000 0000 000000
2017-11-03 07:05:05,0.01,2.80,0.00,17.90,21.24,24.29,14.35,47.36,1026.42,2051.93,2495.00,2451.00,2776.05,600.00,612.26,42.68,0000 0000 0000 0000 000000
2017-11-03 07:10:06,0.02,2.80,0.00,17.89,21.24,24.26,14.32,47.28,1026.40,2051.94,2494.59,2450.87,2776.00,599.89,612.21,42.73,0000 0000 0000 0000 000000
2017-11-03 07:15:08,0.04,2.81,0.00,17.91,21.24,24.27,14.34,47.23,1026.41,2051.91,2494.02,2450.19,2775.79,600.00,612.40,42.78,0000 0000 0000 0000 000000
2017-11-03 07:20:09,0.01,2.81,0.00,17.92,21.24,24.26,14.34,47.35,1026.45,2051.87,2494.00,2450.01,2775.11,600.01,612.29,42.83,0000 0000 0000 0000 000000
2017-11-03 07:25:11,-0.02,2.81,0.00,17.92,21.25,24.29,14.31,47.35,1026.47,2051.54,2493.84,2450.00,2775.00,599.95,612.28,42.88,0000 0000 0000 0000 000000
2017-11-03 07:30:12,0.01,2.81,0.00,17.91,21.26,24.29,14.35,47.26,1026.42,2051.48,2493.28,2449.96,2774.81,600.14,612.44,42.93,0000 0000 0000 0000 000000
2017-11-03 07:35:14,0.03,2.81,0.00,17.90,21.27,24.33,14.26,47.25,1026.41,2051.47,2493.00,2449.57,2774.19,599.92,612.25,42.98,0000 0000 0000 0000 000000
2017-11-03 07:40:15,0.03,2.81,0.00,17.93,21.27,24.31,14.37,47.27,1026.41,2051.36,2492.41,2449.04,2774.00,600.31,612.46,43.03,0000 0000 0000 0000 000000
2017-11-03 07:45:16,0.03,2.81,0.00,17.93,21.27,24.33,14.26,47.10,1026.40,2051.33,2491.78,2448.97,2773.83,599.99,612.20,43.08,0000 0000 0000 0000 000000
2017-11-03 07:50:18,0.04,2.81,0.00,17.92,21.27,24.33,14.28,47.22,1026.43,2051.48,2491.20,2448.70,2773.18,599.67,611.95,43.13,0000 0000 0000 0000 000000
2017-11-03 07:55:19,0.03,2.81,0.00,17.92,21.27,24.35,14.31,47.34,1026.41,2051.59,2490.97,2448.05,2773.00,600.07,612.16,43.18,0000 0000 0000 0000 000000
2017-11-03 08:00:20,0.01,2.82,0.00,17.91,21.28,24.36,14.34,47.55,1026.40,2051.61,2490.20,2448.00,2772.87,600.15,612.35,43.23,0000 0000 0000 0000 000000
2017-11-03 08:05:21,0.04,2.82,0.00,17.89,21.29,24.32,14.27,47.36,1026.39,2051.69,2490.00,2447.98,2772.21,599.80,612.13,43.29,0000 0000 0000 0000 000000
2017-11-03 08:10:22,0.02,2.82,0.00,17.91,21.29,24.35,14.32,47.27,1026.42,2051.52,2489.52,2447.39,2772.00,600.06,612.47,43.34,0000 0000 0000 0000 000000
2017-11-03 08:15:24,0.02,2.82,0.00,17.94,21.29,24.32,14.29,47.39,1026.43,2051.65,2489.07,2447.05,2771.94,599.94,612.22,43.39,0000 0000 0000 0000 000000
2017-11-03 08:20:25,0.03,2.82,0.00,17.93,21.29,24.37,14.29,47.33,1026.41,2051.55,2488.81,2447.00,2771.22,599.78,612.03,43.44,0000 0000 0000 0000 000000
2017-11-03 08:25:26,0.03,2.82,0.00,17.92,21.29,24.39,14.28,47.27,1026.41,2051.62,2488.07,2446.81,2771.00,600.05,612.32,43.49,0000 0000 0000 0000 000000
2017-11-03 08:30:28,0.02,2.82,0.00,17.95,21.29,24.33,14.29,47.28,1026.46,2051.52,2487.93,2446.08,2770.88,599.94,612.35,43.54,0000 0000 0000 0000 000000
2017-11-03 08:35:29,0.01,2.82,0.00,17.94,21.30,24.37,14.27,47.15,1026.57,2051.33,2487.40,2446.00,2770.12,599.82,612.28,43.59,0000 0000 0000 0000 000000
2017-11-03 08:40:30,-0.00,2.82,0.00,17.94,21.31,24.33,14.25,47.31,1026.59,2051.15,2487.00,2445.99,2770.00,600.03,612.44,43.64,0000 0000 0000 0000 000000
2017-11-03 08:45:32,0.04,2.83,0.00,17.93,21.32,24.33,14.30,47.23,1026.48,2051.26,2486.51,2445.59,2769.86,600.16,612.46,43.69,0000 0000 0000 0000 000000
2017-11-03 08:50:33,0.05,2.83,0.00,17.92,21.32,24.34,14.34,47.31,1026.41,2051.23,2486.02,2445.05,2769.11,600.15,612.32,43.74,0000 0000 0000 0000 000000
2017-11-03 08:55:34,0.01,2.83,0.00,17.95,21.32,24.39,14.40,47.40,1026.40,2051.25,2485.73,2445.00,2769.00,600.22,612.27,43.79,0000 0000 0000 0000 000000
2017-11-03 09:00:36,0.00,2.83,0.00,17.95,21.32,24.38,14.31,47.36,1026.39,2051.21,2485.05,2444.96,2768.82,599.71,611.95,43.84,0000 0000 0000 0000 000000
2017-11-03 09:05:37,0.03,2.83,0.00,17.96,21.32,24.36,14.34,47.38,1026.39,2051.08,2484.99,2444.46,2768.13,599.97,612.27,43.89,0000 0000 0000 0000 000000
2017-11-03 09:10:38,0.02,2.83,0.00,17.96,21.32,24.40,14.30,47.31,1026.39,2051.02,2484.34,2444.02,2767.99,599.80,612.08,43.94,0000 0000 0000 0000 000000
2017-11-03 09:15:40,0.01,2.83,0.00,17.97,21.32,24.37,14.35,47.30,1026.40,2051.02,2484.01,2444.00,2767.76,600.18,612.23,43.99,0000 0000 0000 0000 000000
2017-11-03 09:20:41,0.02,2.83,0.00,17.96,21.32,24.36,14.33,47.48,1026.41,2051.03,2483.88,2443.86,2767.07,600.13,612.33,44.04,0000 0000 0000 0000 000000
2017-11-03 09:25:42,0.04,2.84,0.00,17.98,21.33,24.39,14.32,47.22,1026.40,2051.02,2483.12,2443.20,2767.00,600.06,612.27,44.09,0000 0000 0000 0000 000000
2017-11-03 09:30:44,0.01,2.84,0.00,17.98,21.34,24.36,14.33,47.38,1026.41,2051.03,2482.99,2443.01,2766.79,600.18,612.34,44.14,0000 0000 0000 0000 000000
2017-11-03 09:35:45,0.03,2.84,0.00,17.98,21.34,24.41,14.36,47.27,1026.43,2051.02,2482.38,2442.99,2766.12,600.38,612.49,44.19,0000 0000 0000 0000 000000
2017-11-03 09:40:47,0.01,2.84,0.00,17.98,21.34,24.40,14.32,47.08,1026.43,2051.01,2482.01,2442.77,2766.00,600.14,612.18,44.25,0000 0000 0000 0000 000000
2017-11-03 09:45:48,0.03,2.84,0.00,17.97,21.34,24.36,14.35,47.17,1026.42,2051.01,2481.82,2442.10,2765.91,600.17,612.41,44.30,0000 0000 0000 0000 000000
2017-11-03 09:50:49,0.03,2.84,0.00,17.99,21.34,24.40,14.32,47.20,1026.42,2051.01,2481.10,2442.00,2765.18,600.25,612.32,44.35,0000 0000 0000 0000 000000
2017-11-03 09:55:50,0.00,2.84,0.00,17.99,21.34,24.40,14.28,47.27,1026.42,2051.00,2480.96,2441.98,2765.00,599.80,611.92,44.40,0000 0000 0000 0000 000000
2017-11-03 10:00:52,0.03,2.85,0.00,17.97,21.35,24.39,14.21,47.23,1026.43,2051.01,2480.33,2441.80,2764.98,599.38,611.62,44.45,0000 0000 0000 0000 000000
2017-11-03 10:05:53,0.04,2.85,0.00,17.98,21.35,24.39,14.28,47.27,1026.42,2051.00,2480.01,2441.17,2764.39,599.85,612.19,44.50,0000 0000 0000 0000 000000
2017-11-03 10:10:54,0.01,2.85,0.00,17.99,21.36,24.42,14.32,47.32,1026.44,2051.01,2479.79,2441.01,2764.01,600.28,612.50,44.55,0000 0000 0000 0000 000000
2017-11-03 10:15:55,0.01,2.85,0.00,17.98,21.37,24.42,14.27,47.30,1026.43,2051.01,2479.06,2440.98,2763.98,599.56,611.74,44.60,0000 0000 0000 0000 000000
2017-11-03 10:20:56,0.03,2.85,0.00,18.01,21.37,24.37,14.31,47.40,1026.44,2051.00,2478.95,2440.65,2763.57,600.23,612.27,44.65,0000 0000 0000 0000 000000
2017-11-03 10:25:57,0.04,2.85,0.00,18.02,21.37,24.40,14.31,47.17,1026.42,2051.01,2478.25,2440.04,2763.03,600.09,612.18,44.70,0000 0000 0000 0000 000000
2017-11-03 10:30:59,0.00,2.85,0.00,18.00,21.37,24.43,14.26,47.25,1026.40,2051.01,2477.99,2440.00,2762.99,599.78,611.71,44.75,0000 0000 0000 0000 000000
2017-11-03 10:36:00,0.03,2.85,0.00,18.03,21.37,24.46,14.34,47.27,1026.41,2051.00,2477.63,2439.97,2762.61,600.15,612.24,44.80,0000 0000 0000 0000 000000
2017-11-03 10:41:01,0.04,2.86,0.00,18.04,21.38,24.44,14.29,47.20,1026.42,2051.00,2477.03,2439.54,2762.03,599.91,611.98,44.85,0000 0000 0000 0000 000000
2017-11-03 10:46:03,0.01,2.86,0.00,18.04,21.39,24.40,14.25,47.11,1026.42,2051.00,2476.99,2439.11,2762.00,599.83,611.90,44.90,0000 0000 0000 0000 000000
2017-11-03 10:51:04,0.03,2.86,0.00,18.05,21.39,24.43,14.34,47.23,1026.42,2051.00,2476.26,2439.00,2761.74,600.43,612.48,44.95,0000 0000 0000 0000 000000
2017-11-03 10:56:05,-0.00,2.86,0.00,18.05,21.39,24.44,14.28,47.19,1026.40,2051.00,2476.67,2438.99,2761.10,600.30,612.29,45.00,0000 0000 0000 0000 000000
2017-11-03 11:01:07,0.02,2.86,0.00,18.05,21.39,24.46,14.38,47.33,1026.40,2050.99,2476.04,2438.79,2761.00,600.16,612.17,45.05,0000 0000 0000 0000 000000
2017-11-03 11:06:08,0.03,2.86,0.00,18.05,21.39,24.45,14.33,47.20,1026.39,2050.99,2475.71,2438.15,2760.88,600.11,612.14,45.10,0000 0000 0000 0000 000000
2017-11-03 11:11:09,0.03,2.86,0.00,18.02,21.39,24.47,14.29,47.18,1026.40,2050.99,2475.03,2438.01,2760.21,600.11,612.16,45.15,0000 0000 0000 0000 000000
2017-11-03 11:16:10,-0.00,2.86,0.00,18.02,21.39,24.47,14.31,47.27,1026.39,2050.98,2475.03,2438.00,2760.00,599.92,611.92,45.20,0000 0000 0000 0000 000000
2017-11-03 11:21:11,0.00,2.86,0.00,18.03,21.40,24.47,14.31,47.32,1026.38,2050.98,2474.97,2437.98,2759.98,599.85,611.91,45.26,0000 0000 0000 0000 000000
2017-11-03 11:26:13,0.07,2.87,0.00,18.04,21.40,24.45,14.28,47.17,1026.38,2050.97,2474.10,2437.26,2759.53,600.08,612.14,45.31,0000 0000 0000 0000 000000
2017-11-03 11:31:14,0.01,2.87,0.00,18.03,21.39,24.51,14.32,47.06,1026.38,2050.98,2473.94,2437.02,2759.03,600.43,612.53,45.36,0000 0000 0000 0000 000000
2017-11-03 11:36:15,0.02,2.87,0.00,18.05,21.39,24.46,14.41,47.18,1026.38,2050.98,2473.48,2437.00,2759.00,600.38,612.35,45.41,0000 0000 0000 0000 000000
2017-11-03 11:41:17,0.01,2.87,0.00,18.03,21.39,24.50,14.27,47.23,1026.36,2050.99,2472.95,2436.93,2758.86,599.67,611.56,45.46,0000 0000 0000 0000 000000
2017-11-03 11:46:18,0.01,2.87,0.00,18.04,21.39,24.45,14.30,47.22,1026.28,2050.98,2472.90,2436.84,2758.20,600.01,612.06,45.51,0000 0000 0000 0000 000000
2017-11-03 11:51:19,0.04,2.87,0.00,18.04,21.39,24.49,14.41,47.36,1026.31,2050.97,2472.64,2436.20,2758.00,600.27,612.22,45.56,0000 0000 0000 0000 000000
2017-11-03 11:56:21,0.01,2.87,0.00,18.04,21.39,24.48,14.29,47.31,1026.25,2050.97,2472.03,2436.01,2757.97,599.86,611.79,45.61,0000 0000 0000 0000 000000
2017-11-03 12:01:22,0.03,2.88,0.00,18.04,21.39,24.49,14.26,47.19,1026.10,2050.98,2471.72,2435.99,2757.53,599.71,611.44,45.66,0000 0000 0000 0000 000000
2017-11-03 12:06:23,0.02,2.88,0.00,18.04,21.39,24.46,14.29,47.21,1026.02,2050.99,2471.02,2435.87,2757.05,599.94,611.85,45.71,0000 0000 0000 0000 000000
2017-11-03 12:11:24,0.02,2.88,0.00,18.05,21.39,24.51,14.34,47.31,1025.99,2050.97,2470.97,2435.20,2756.99,600.18,612.05,45.76,0000 0000 0000 0000 000000
2017-11-03 12:16:26,0.03,2.88,0.00,18.02,21.39,24.47,14.29,47.20,1025.93,2050.98,2470.34,2435.00,2756.84,599.96,611.68,45.81,0000 0000 0000 0000 000000
2017-11-03 12:21:27,0.01,2.88,0.00,18.02,21.39,24.47,14.30,47.08,1025.94,2050.96,2470.17,2435.00,2756.18,600.54,612.31,45.86,0000 0000 0000 0000 000000
2017-11-03 12:26:29,0.01,2.88,0.00,18.04,21.39,24.50,14.27,47.23,1025.92,2050.95,2469.95,2434.97,2756.00,600.30,611.94,45.91,0000 0000 0000 0000 000000
2017-11-03 12:31:30,0.05,2.88,0.00,18.01,21.39,24.46,14.37,47.23,1025.91,2050.95,2469.19,2434.39,2755.96,600.06,611.90,45.96,0000 0000 0000 0000 000000
2017-11-03 12:36:31,0.02,2.88,0.00,18.03,21.39,24.48,14.27,47.24,1025.91,2050.95,2468.98,2434.03,2755.53,599.51,611.33,46.01,0000 0000 0000 0000 000000
2017-11-03 12:41:32,0.02,2.89,0.00,18.02,21.39,24.49,14.34,47.15,1025.91,2050.96,2468.50,2434.00,2755.02,600.33,612.15,46.06,0000 0000 0000 0000 000000
2017-11-03 12:46:34,-0.01,2.89,0.00,18.00,21.39,24.46,14.29,47.18,1025.91,2050.95,2468.49,2433.99,2755.00,600.11,611.93,46.11,0000 0000 0000 0000 000000
2017-11-03 12:51:35,0.00,2.89,0.00,18.01,21.39,24.49,14.29,47.23,1025.90,2050.90,2468.07,2433.94,2754.94,599.79,611.60,46.17,0000 0000 0000 0000 000000
2017-11-03 12:56:36,0.03,2.89,0.00,18.00,21.39,24.48,14.28,47.33,1025.90,2050.87,2467.99,2433.57,2754.29,599.88,611.68,46.22,0000 0000 0000 0000 000000